Location: Brompton
(51.4000°N, 0.5333°E)
Time: 02:42:54
(UTC+00:00)

Terra - Pass Details

Date: 11 May 2021
Orbit: 701 x 703 km, 98.2° (Epoch: 13 June)

Event Time Altitude Azimuth Distance (km) Brightness Sun altitude
Exits shadow 23:11:39 11° 236° (SW) 2,084 4.0 -19.8°
Maximum altitude 23:14:17 17° 272° (W) 1,772 4.0 -19.9°
Drops below altitude 10° 23:17:19 10° 311° (NW) 2,182 5.1 -20.0°
Sets 23:20:24 0° 333° (NNW) 3,106 6.5 -20.1°
